Location: Poughquag
(41.6090°N, 73.6820°W)
Time: 11:28:47
(UTC-05:00)

Envisat - Pass Details

Date: 19 January 2020
Orbit: 764 x 766 km, 98.1° (Epoch: 24 February)

Event Time Altitude Azimuth Distance (km) Brightness Sun altitude
Rises 17:49:48 0° 169° (S) 3,218 6.3 -10.5°
Reaches altitude 10° 17:52:06 10° 171° (S) 2,296 5.6 -10.9°
Maximum altitude 17:57:09 78° 257° (WSW) 788 3.2 -11.8°
Drops below altitude 10° 18:02:16 10° 344° (NNW) 2,312 5.5 -12.7°
Sets 18:04:35 0° 346° (NNW) 3,243 6.2 -13.2°
